Location: ????????
(55.7667°N, 37.4833°E)
Time: 08:09:39
(UTC+00:00)

Cosmos 2061 Rocket - Visible Passes

Search period start: 19 January 2026 00:00
Search period end: 29 January 2026 00:00
Orbit: 966 x 1011 km, 82.9° (Epoch: 18 January)

Date Brightness Start Highest point End Pass type
(mag) Time Alt. Az. Time Alt. Az. Time Alt. Az.
19 Jan 5.6 16:23:35 10° N 16:26:09 18° NNE 16:26:09 18° NNE visible
19 Jan 5.7 18:08:43 10° N 18:11:06 24° N 18:11:06 24° N visible
19 Jan 6.6 19:55:04 10° NNW 19:56:03 14° NNW 19:56:03 14° NNW visible
20 Jan 5.4 16:52:30 10° N 16:55:29 24° NNE 16:55:29 24° NNE visible
20 Jan 5.8 18:38:02 10° NNW 18:40:26 24° NNW 18:40:26 24° NNW visible
20 Jan 6.8 20:25:12 10° NW 20:25:24 11° NW 20:25:24 11° NW visible
21 Jan 5.7 15:36:58 10° NNE 15:39:53 15° NE 15:39:53 15° NE visible
21 Jan 5.3 17:21:35 10° N 17:24:51 29° N 17:24:51 29° N visible
21 Jan 6.1 19:07:30 10° NNW 19:09:48 22° NNW 19:09:48 22° NNW visible
22 Jan 5.4 16:05:36 10° N 16:09:17 21° NE 16:09:17 21° NE visible
22 Jan 5.2 17:50:47 10° N 17:54:15 34° N 17:54:15 34° N visible
22 Jan 6.3 19:37:11 10° NNW 19:39:13 18° NW 19:39:13 18° NW visible
23 Jan 5.9 14:51:47 10° NNE 14:52:18 10° NE 14:52:49 10° NE visible
23 Jan 5.0 16:34:33 10° N 16:38:44 29° NE 16:38:44 29° NE visible
23 Jan 5.3 18:20:07 10° NNW 18:23:42 35° NNW 18:23:42 35° NNW visible
23 Jan 6.6 20:07:21 10° NW 20:08:40 13° NW 20:08:40 13° NW visible
24 Jan 5.5 15:18:57 10° N 15:22:34 15° NE 15:23:16 15° NE visible
24 Jan 4.6 17:03:38 10° N 17:08:14 41° NNE 17:08:14 41° NNE visible
24 Jan 5.6 18:49:35 10° NNW 18:53:13 30° NW 18:53:13 30° NW visible
25 Jan 5.1 15:47:39 10° N 15:52:37 23° NE 15:52:50 23° ENE visible
25 Jan 4.4 17:32:52 10° N 17:37:48 55° N 17:37:48 55° N visible
25 Jan 6.0 19:19:18 10° NNW 19:22:46 23° WNW 19:22:46 23° WNW visible
26 Jan 5.8 14:33:22 10° NNE 14:34:27 10° NE 14:35:32 10° NE visible
26 Jan 4.6 16:16:36 10° N 16:22:25 34° ENE 16:22:28 34° ENE visible
26 Jan 4.6 18:02:11 10° NNW 18:07:27 55° NW 18:07:27 55° NW visible
26 Jan 6.5 19:49:32 10° NW 19:52:25 15° WNW 19:52:25 15° WNW visible
27 Jan 5.5 15:00:58 10° N 15:04:42 16° NE 15:07:13 13° ENE visible
27 Jan 4.1 16:45:42 10° N 16:52:02 53° ENE 16:52:12 53° ENE visible
27 Jan 5.2 18:31:41 10° NNW 18:37:11 39° W 18:37:11 39° W visible
28 Jan 6.6 04:43:46 10° ESE 04:47:31 16° ENE 04:51:18 10° NE visible
28 Jan 5.1 15:29:41 10° N 15:34:44 23° NE 15:37:04 19° E visible
28 Jan 3.9 17:14:56 10° N 17:21:25 84° ENE 17:22:04 74° SSE visible
28 Jan 5.9 19:01:24 10° NNW 19:06:22 24° W 19:07:04 24° W visible
